Hundvaag 1 weather for Mar 1997
Month no. 117
Obs.
Da.
Temp. Dew Point Precip. Wind
Speed
Wind gusts Cloud cover Press. Humidity Wind dir. Sunny OPT
01.03.1997 6,0   5,0     0          
02.03.1997 7,4   16,0     0          
03.03.1997 5,0   4,0     0          
04.03.1997 5,2   3,0     10       1  
05.03.1997 5,0   0,0     0          
06.03.1997 5,6   8,0     9       1  
07.03.1997 4,8   0,0     1          
08.03.1997 4,8   12,0     9       1  
09.03.1997 1,6   0,0     9       1  
10.03.1997 5,2   0,0     0          
11.03.1997 5,2   0,0     0          
12.03.1997 3,6   0,0     10       1  
13.03.1997 6,6   0,0     0          
14.03.1997 1,0   9,0     7       1  
15.03.1997 0,5   0,0     2          
16.03.1997 -1,3   1,0     1          
17.03.1997 -2,0   0,0     10       1  
18.03.1997 -1,1   0,0     0          
19.03.1997 -1,2   1,6     6       1  
20.03.1997 -0,8   0,0     9       1  
21.03.1997 0,8   0,0     8       1  
22.03.1997 0,0   0,0     10       1  
23.03.1997 3,4   0,0     0          
24.03.1997 2,8   0,0     0          
25.03.1997 3,4   0,0     9       1  
26.03.1997 7,0   5,0     0          
27.03.1997 6,4   21,0     2          
28.03.1997 4,8   1,0     8       1  
29.03.1997 2,6   2,0     4          
30.03.1997 7,4   11,0     0          
31.03.1997 7,2   4,0     0          
Avrg/Sum 3,4   103,6     4,0       13